Wind_Speed
3 2 2 3 3 4 3 3 3 3 3 4 5 5 6 6 6 6 6 6 6 6 6 6 5 5 5 5 5 6 6 6 7 7 7 7 8 8 8 8 9 9 8
2 2 1 2 2 3 2 2 2 3 3 4 5 5 5 5 6 6 6 6 5 5 6 6 6 6 5 5 5 5 6 7 7 8 8 7 8 8 7 8 8 9 9
2 2 1 1 1 2 2 2 3 3 4 5 5 5 5 6 6 6 5 4 4 5 5 5 6 6 5 5 5 5 6 6 7 7 8 8 8 8 8 8 8 9 9
2 2 1 1 1 1 2 2 3 4 5 5 5 5 5 5 6 6 5 5 5 5 5 5 5 5 5 5 5 5 5 6 7 7 8 8 9 9 9 9 9 9 10
2 2 1 1 1 2 2 3 3 4 5 6 6 5 5 5 5 5 5 6 5 5 5 5 5 5 5 5 5 5 6 6 6 7 8 8 9 9 9 10 10 10 10
2 2 1 1 1 2 2 3 4 5 5 6 5 5 5 5 5 5 6 6 5 5 5 5 5 5 5 5 5 5 6 6 6 7 7 8 9 9 9 10 10 10 11
3 2 1 0 1 2 2 3 4 5 5 5 5 5 5 5 5 6 6 6 6 5 5 5 5 5 5 5 5 5 5 6 6 6 7 8 9 9 10 10 11 11 11
3 2 1 1 1 2 2 3 4 5 5 5 5 5 5 5 6 6 6 6 6 6 6 6 6 6 6 6 6 6 5 5 6 6 7 8 9 10 10 10 11 11 11
3 2 2 1 1 1 3 3 4 5 5 5 5 5 5 5 6 6 6 6 6 6 6 6 6 6 6 6 6 6 5 5 5 6 6 7 9 10 10 11 11 11 11
3 2 1 1 1 2 3 4 4 4 5 5 5 6 6 6 6 6 6 7 7 7 7 7 7 7 7 7 6 6 5 4 4 5 5 6 7 9 10 10 11 11 11
3 2 2 1 2 2 3 4 4 4 5 5 5 6 6 7 7 7 7 7 8 8 7 8 7 7 7 7 6 6 5 3 3 4 4 5 6 7 9 10 10 10 11
3 2 1 1 2 2 3 4 4 4 5 5 6 6 7 7 7 8 8 8 8 8 8 8 8 8 7 7 6 5 4 3 2 2 3 3 4 6 8 9 9 10 10
4 2 2 1 1 2 3 3 4 4 5 5 6 6 6 7 7 8 8 8 8 8 8 8 8 8 8 7 6 5 4 2 1 1 2 2 3 5 6 7 8 9 10
4 3 2 1 0 1 2 3 4 4 5 5 5 6 6 7 8 8 8 8 8 8 8 8 8 8 8 7 6 5 3 2 1 1 1 1 2 4 5 6 7 8 9
4 3 2 1 0 1 2 3 3 4 4 5 6 6 7 8 8 8 8 8 9 9 9 8 8 8 7 6 6 5 3 2 1 1 1 1 1 2 4 5 6 7 8
4 3 2 1 1 1 2 2 3 4 4 5 6 7 8 8 8 8 8 8 8 9 8 8 7 8 7 6 6 5 4 3 2 2 2 2 2 2 3 4 5 7 8
4 2 2 2 2 1 1 2 3 3 4 5 6 7 8 8 8 8 8 8 9 9 8 8 7 7 7 6 5 5 5 3 3 2 2 2 3 3 4 4 5 6 7
4 3 2 2 1 1 1 1 2 3 4 5 6 7 8 8 8 9 9 9 10 9 9 8 7 7 7 6 6 5 5 4 3 3 3 2 3 4 4 4 4 5 6
4 4 4 3 2 1 1 1 2 3 3 4 5 6 7 8 8 8 9 9 10 9 9 8 8 7 7 6 6 6 5 4 3 3 3 3 3 3 3 4 3 4 5
5 5 4 3 2 1 1 1 1 2 3 4 5 6 7 7 8 8 9 9 10 9 9 9 8 7 7 7 6 6 6 5 4 3 3 3 3 3 3 3 3 4 4
5 5 4 3 2 1 1 0 0 1 2 3 4 5 6 6 7 8 9 9 10 10 9 9 8 7 7 7 7 6 6 5 4 3 3 2 2 2 2 2 2 2 3
5 5 4 3 2 2 1 1 1 1 2 2 3 4 5 6 6 7 8 9 10 10 9 9 8 8 8 7 7 7 6 6 5 4 3 2 2 1 1 2 2 2 2
6 6 5 4 3 2 2 2 2 2 1 2 3 4 5 5 6 6 8 8 9 9 9 9 8 8 7 7 7 7 6 6 5 4 4 2 1 1 1 1 2 2 2
7 7 6 5 4 4 3 3 3 3 2 1 2 3 4 5 5 6 7 8 9 9 9 9 8 8 7 7 6 6 6 6 5 5 4 3 2 0 1 1 2 2 3
8 7 6 6 6 5 4 4 3 4 3 2 2 2 3 4 5 5 6 7 8 9 9 8 8 7 7 7 6 6 6 6 6 5 4 3 2 2 1 2 3 3 4
8 8 7 7 6 6 5 4 4 4 4 3 3 2 2 3 3 4 5 5 7 7 8 8 8 8 7 7 6 6 5 5 5 5 4 4 3 3 3 3 4 5 5
Wind_Direction
118 103 74 56 51 46 42 29 13 10 3 352 345 338 335 334 330 322 316 312 308 306 307 303 298 296 287 280 272 264 255 252 249 238 233 226 220 217 213 211 209 205 202
132 116 88 59 36 44 43 20 8 5 356 347 343 342 338 333 331 328 325 320 312 308 307 307 299 298 291 286 278 268 258 254 255 243 235 228 224 219 215 212 209 206 207
147 122 110 72 47 32 24 4 352 351 353 349 345 344 340 337 340 342 339 332 321 317 318 311 309 303 295 291 287 280 268 259 256 245 235 231 228 225 221 216 212 209 211
159 131 104 87 70 43 19 356 351 350 351 347 345 343 341 342 346 349 347 339 329 323 321 317 314 306 298 293 290 285 274 265 257 243 233 229 227 226 225 221 217 215 216
157 139 110 95 51 18 360 1 356 351 349 344 340 341 343 345 346 348 347 343 334 327 321 319 318 314 307 296 289 284 275 269 261 243 235 230 227 225 224 223 222 220 219
157 156 144 95 5 3 360 356 350 347 343 341 338 341 343 345 346 347 346 342 339 335 328 323 322 318 313 304 297 293 281 273 264 245 236 232 228 225 224 224 223 222 221
176 174 167 193 350 354 2 356 351 346 345 347 346 343 344 345 346 343 343 343 342 340 335 330 327 322 320 313 303 301 289 272 259 245 236 233 229 227 225 224 224 223 222
177 176 183 229 320 344 353 351 349 351 352 351 351 349 347 344 339 341 341 342 341 339 338 336 333 329 328 323 311 302 294 275 258 246 239 236 232 228 227 225 223 222 222
188 189 189 213 286 334 346 344 352 353 349 348 350 352 346 342 341 343 344 344 342 342 341 338 333 329 326 325 321 313 303 279 257 249 241 239 235 229 228 225 221 222 223
187 186 196 243 298 328 338 340 346 346 347 348 348 348 346 347 349 347 349 349 346 345 345 341 337 334 331 328 326 323 317 293 258 247 241 239 233 228 225 222 220 221 223
183 181 196 251 302 327 337 339 343 343 346 347 349 349 348 350 353 353 351 350 348 349 350 347 344 340 338 336 332 327 322 303 263 242 240 240 230 225 221 219 221 221 221
181 185 203 255 312 336 346 347 349 347 348 351 355 352 351 353 356 358 355 351 352 352 351 350 348 348 346 340 336 333 331 308 267 237 230 233 228 221 214 215 218 217 216
178 176 175 190 325 349 356 6 7 360 356 358 358 356 357 357 356 355 357 359 359 355 354 353 354 355 354 350 344 342 342 331 294 243 224 218 219 212 206 210 215 212 210
176 170 160 167 321 6 11 28 19 9 10 7 4 5 1 359 357 358 0 359 358 356 358 1 0 359 358 358 358 357 359 8 21 90 158 192 205 201 202 208 208 205 205
171 164 167 185 117 38 36 38 23 17 20 19 18 15 10 6 5 7 7 6 2 359 358 357 1 2 2 6 11 15 21 36 61 96 106 133 159 177 187 195 198 199 198
175 169 166 169 126 73 44 34 22 25 28 26 24 20 14 12 13 13 11 9 5 1 359 0 2 5 6 12 18 23 32 47 60 73 88 99 114 144 168 177 180 181 185
175 176 170 162 139 103 54 36 24 28 31 27 23 20 18 17 19 19 17 14 10 8 6 7 8 6 8 13 22 31 37 49 57 68 80 98 112 122 140 154 167 171 180
186 185 174 169 161 144 94 57 36 36 33 26 22 21 21 21 22 22 21 19 16 14 14 15 16 18 18 19 25 33 39 45 61 75 81 98 110 117 126 132 149 165 173
193 189 180 183 191 194 118 63 46 44 35 25 20 22 22 20 21 22 21 20 19 18 20 19 23 28 27 28 35 40 43 45 61 74 78 94 118 120 121 125 137 156 163
199 191 184 194 197 184 126 68 42 34 25 20 19 20 20 19 21 22 21 20 20 20 21 22 26 33 33 34 37 40 44 46 55 67 73 89 113 124 129 131 137 161 165
202 201 198 202 199 194 189 191 17 12 11 16 21 17 13 15 21 24 24 23 24 25 27 29 32 36 37 38 38 40 42 43 46 55 70 95 118 121 127 137 148 168 181
213 217 215 213 212 213 224 238 273 321 347 10 20 18 15 21 23 25 24 25 25 28 31 34 36 38 41 39 39 38 36 40 43 44 51 64 90 116 140 161 172 185 202
224 224 224 226 220 232 248 260 267 281 310 357 17 19 20 25 28 29 28 26 27 31 33 35 38 39 39 39 39 37 38 42 42 42 44 47 59 88 127 179 208 213 229
226 229 228 230 232 236 243 256 257 257 268 311 1 13 20 24 25 27 30 28 29 31 33 34 36 38 38 39 37 36 35 35 35 32 30 30 27 28 264 256 259 252 253
227 230 234 237 238 237 240 247 250 254 258 275 310 345 360 14 21 24 26 27 29 31 32 33 32 36 38 37 36 34 30 26 24 19 16 12 6 350 303 279 274 279 275
228 233 239 237 234 234 235 236 245 259 262 260 273 297 328 348 2 15 18 21 25 28 30 31 30 31 31 29 30 31 27 23 16 5 360 353 340 325 304 290 282 286 284
Height
5894 5894 5894 5893 5893 5893 5892 5892 5891 5891 5890 5889 5888 5886 5885 5884 5883 5882 5880 5879 5878 5877 5876 5875 5874 5873 5873 5872 5872 5872 5872 5872 5872 5873 5873 5874 5875 5875 5876 5877 5878 5879 5880
5894 5894 5894 5893 5893 5893 5893 5892 5891 5891 5890 5889 5887 5886 5885 5884 5882 5881 5880 5878 5877 5876 5875 5874 5873 5872 5872 5871 5871 5871 5871 5871 5871 5871 5872 5873 5873 5874 5875 5876 5877 5878 5879
5894 5894 5894 5893 5893 5893 5893 5892 5892 5891 5890 5889 5887 5886 5884 5883 5882 5880 5879 5878 5877 5876 5875 5874 5872 5872 5871 5870 5870 5870 5869 5869 5869 5870 5870 5871 5872 5873 5874 5875 5876 5877 5878
5894 5894 5894 5893 5893 5893 5893 5892 5892 5891 5889 5888 5887 5885 5884 5883 5882 5880 5879 5878 5876 5875 5874 5873 5872 5871 5870 5869 5869 5868 5868 5868 5868 5868 5869 5870 5871 5872 5873 5874 5875 5876 5877
5893 5894 5894 5894 5894 5893 5893 5892 5891 5890 5889 5888 5886 5885 5884 5883 5881 5880 5879 5877 5876 5875 5873 5872 5871 5870 5869 5868 5868 5867 5867 5866 5866 5867 5867 5868 5869 5870 5871 5872 5873 5875 5876
5893 5894 5894 5894 5894 5893 5892 5892 5891 5890 5889 5887 5886 5885 5883 5882 5881 5880 5878 5877 5875 5874 5873 5872 5870 5869 5868 5867 5867 5866 5865 5865 5865 5865 5866 5867 5867 5869 5870 5871 5872 5873 5874
5893 5893 5894 5894 5893 5893 5892 5891 5890 5889 5888 5887 5886 5884 5883 5882 5880 5879 5878 5876 5875 5873 5872 5871 5870 5869 5868 5867 5866 5865 5864 5864 5864 5864 5864 5865 5866 5867 5868 5869 5870 5872 5873
5893 5893 5893 5893 5893 5892 5892 5891 5890 5889 5888 5887 5885 5884 5883 5881 5880 5878 5877 5875 5874 5873 5871 5870 5869 5868 5867 5866 5864 5863 5862 5862 5862 5862 5863 5863 5864 5865 5866 5867 5869 5870 5871
5892 5893 5893 5893 5893 5892 5891 5891 5889 5888 5887 5886 5885 5884 5882 5881 5879 5878 5876 5875 5873 5872 5871 5869 5868 5867 5866 5864 5863 5862 5861 5860 5860 5860 5861 5861 5862 5863 5864 5865 5867 5868 5870
5892 5892 5892 5892 5892 5892 5891 5890 5889 5888 5887 5886 5884 5883 5882 5880 5878 5877 5876 5874 5873 5871 5870 5868 5867 5866 5864 5863 5862 5860 5859 5859 5858 5859 5859 5859 5860 5861 5862 5863 5865 5866 5868
5892 5892 5892 5892 5892 5891 5890 5890 5889 5888 5887 5885 5884 5882 5881 5879 5878 5876 5875 5873 5872 5871 5869 5868 5866 5865 5863 5862 5860 5859 5858 5857 5857 5857 5857 5858 5858 5859 5860 5862 5863 5864 5866
5892 5892 5892 5892 5891 5891 5890 5889 5888 5887 5886 5885 5884 5882 5881 5879 5877 5876 5874 5873 5871 5870 5868 5867 5865 5864 5862 5861 5859 5858 5857 5856 5856 5856 5856 5857 5857 5858 5858 5860 5861 5862 5864
5891 5891 5891 5891 5891 5890 5890 5889 5888 5887 5886 5885 5883 5882 5880 5879 5877 5876 5874 5872 5871 5869 5868 5866 5864 5863 5861 5860 5858 5857 5856 5855 5855 5855 5855 5856 5856 5857 5857 5858 5859 5860 5862
5891 5891 5891 5891 5891 5890 5889 5888 5888 5887 5886 5884 5883 5882 5880 5879 5877 5875 5873 5872 5870 5869 5867 5865 5864 5862 5861 5859 5858 5857 5856 5855 5855 5855 5855 5855 5855 5856 5856 5857 5857 5859 5861
5890 5891 5891 5891 5890 5890 5889 5888 5888 5887 5886 5884 5883 5882 5880 5878 5876 5875 5873 5871 5870 5868 5866 5865 5863 5862 5860 5859 5857 5856 5856 5855 5855 5855 5854 5855 5855 5855 5856 5856 5857 5858 5860
5890 5890 5890 5890 5890 5890 5889 5888 5888 5887 5886 5884 5883 5881 5880 5878 5876 5875 5873 5871 5869 5867 5865 5864 5862 5861 5860 5858 5857 5856 5856 5855 5855 5855 5854 5855 5855 5855 5855 5856 5857 5858 5860
5889 5889 5890 5890 5890 5889 5889 5888 5888 5887 5885 5884 5883 5881 5880 5878 5876 5875 5873 5871 5869 5867 5865 5863 5861 5860 5859 5858 5857 5856 5856 5855 5855 5855 5855 5855 5855 5855 5856 5856 5857 5858 5860
5889 5889 5889 5889 5889 5889 5889 5888 5887 5886 5885 5884 5883 5882 5880 5878 5876 5875 5873 5871 5869 5867 5865 5863 5861 5860 5859 5858 5857 5857 5856 5855 5855 5855 5855 5855 5855 5856 5856 5856 5857 5858 5860
5888 5888 5889 5889 5889 5888 5888 5888 5887 5886 5885 5884 5883 5881 5880 5878 5877 5875 5873 5871 5869 5867 5864 5863 5861 5860 5859 5858 5858 5857 5857 5856 5856 5856 5856 5856 5856 5856 5857 5857 5858 5859 5860
5887 5887 5888 5888 5888 5888 5888 5887 5887 5886 5885 5884 5883 5881 5880 5879 5877 5875 5873 5871 5869 5867 5864 5863 5861 5860 5859 5859 5858 5858 5857 5857 5856 5856 5856 5856 5857 5857 5857 5858 5859 5859 5860
5886 5886 5887 5887 5887 5887 5887 5887 5886 5886 5885 5884 5883 5881 5880 5879 5877 5875 5873 5871 5869 5867 5865 5863 5862 5861 5860 5859 5859 5858 5858 5857 5857 5857 5857 5857 5857 5857 5858 5858 5859 5860 5860
5885 5885 5886 5886 5886 5886 5886 5886 5886 5885 5885 5884 5883 5881 5880 5879 5877 5875 5874 5872 5870 5867 5865 5864 5863 5862 5861 5860 5859 5859 5858 5858 5857 5857 5857 5857 5857 5857 5858 5859 5859 5860 5860
5884 5884 5884 5885 5885 5885 5885 5885 5885 5884 5884 5883 5882 5881 5880 5879 5877 5875 5874 5872 5870 5868 5866 5865 5864 5863 5862 5861 5860 5860 5859 5858 5858 5858 5857 5857 5857 5858 5858 5858 5859 5859 5860
5882 5883 5883 5883 5883 5883 5883 5883 5883 5883 5883 5882 5882 5881 5880 5878 5877 5876 5874 5872 5871 5869 5867 5866 5864 5863 5863 5862 5861 5860 5860 5859 5859 5858 5858 5857 5857 5857 5858 5858 5858 5858 5859
5880 5881 5881 5882 5882 5882 5882 5882 5882 5881 5881 5881 5880 5880 5879 5878 5877 5875 5874 5873 5871 5869 5868 5866 5865 5864 5863 5862 5861 5861 5860 5859 5858 5858 5857 5857 5857 5857 5857 5857 5857 5857 5858
5878 5879 5879 5880 5880 5880 5880 5880 5880 5880 5879 5879 5879 5878 5877 5877 5876 5875 5874 5872 5871 5870 5868 5867 5866 5865 5864 5863 5862 5861 5860 5859 5858 5858 5857 5856 5856 5856 5856 5856 5856 5856 5856